This is the latest recevied weather packets stored in our database for station/object XE1GMR. If no packets are shown the sender has not sent any weather packets the latest 10 day(s).
| Time | Temp. | Humidity | Pressure | Rain* | Wind** | Luminosity | Snow |
|---|---|---|---|---|---|---|---|
| 1777500644 | 32.78° C | 13% | 1118.2 hPa | 0 mm | - | 422 W/m² | - |
| 1777500341 | 31.67° C | 13% | 1118.1 hPa | 0 mm | - | 440 W/m² | - |
| 1777500037 | 32.22° C | 13% | 1118.5 hPa | 0 mm | - | 448 W/m² | - |
| 1777499733 | 32.78° C | 14% | 1118.2 hPa | 0 mm | - | 465 W/m² | - |
| 1777499430 | 33.33° C | 13% | 1118.1 hPa | 0 mm | - | 463 W/m² | - |
| 1777499129 | 32.22° C | 13% | 1118.2 hPa | 0 mm | - | 471 W/m² | - |
| 1777498825 | 32.22° C | 14% | 1118.4 hPa | 0 mm | - | 495 W/m² | - |
| 1777498521 | 32.22° C | 14% | 1118.6 hPa | 0 mm | - | 517 W/m² | - |
| 1777498217 | 32.22° C | 14% | 1118.5 hPa | 0 mm | - | 526 W/m² | - |
| 1777497916 | 33.33° C | 13% | 1118.5 hPa | 0 mm | - | 547 W/m² | - |
| 1777497611 | 32.78° C | 13% | 1118.5 hPa | 0 mm | - | 556 W/m² | - |
| 1777497308 | 33.33° C | 13% | 1118.4 hPa | 0 mm | - | 572 W/m² | - |
| 1777497004 | 32.22° C | 13% | 1118.7 hPa | 0 mm | - | 577 W/m² | - |
| 1777496701 | 32.22° C | 14% | 1119 hPa | 0 mm | - | 590 W/m² | - |
| 1777496397 | 31.67° C | 14% | 1119.2 hPa | 0 mm | - | 589 W/m² | - |
| 1777496094 | 33.33° C | 14% | 1119.1 hPa | 0 mm | - | 594 W/m² | - |
| 1777495790 | 33.33° C | 14% | 1119.3 hPa | 0 mm | - | 611 W/m² | - |
| 1777495486 | 32.78° C | 14% | 1119.3 hPa | 0 mm | - | 629 W/m² | - |
| 1777495183 | 32.78° C | 14% | 1119.4 hPa | 0 mm | - | 636 W/m² | - |
| 1777494880 | 32.78° C | 14% | 1119.6 hPa | 0 mm | - | 649 W/m² | - |
| 1777494577 | 33.33° C | 14% | 1119.5 hPa | 0 mm | - | 667 W/m² | - |
| 1777494275 | 32.78° C | 15% | 1119.8 hPa | 0 mm | - | 673 W/m² | - |
| 1777493971 | 33.33° C | 15% | 1119.6 hPa | 0 mm | - | 686 W/m² | - |
| 1777493669 | 32.78° C | 15% | 1119.8 hPa | 0 mm | - | 712 W/m² | - |
| 1777493366 | 32.78° C | 14% | 1119.9 hPa | 0 mm | - | 727 W/m² | - |
* Rain latest hour (hover to see other rain measurements)
** Current wind speed in m/s (hover to see current wind gust speed)